Tracking 18795 objects as of 24-August-2017
HD Live streaming from Space Station
objects crossing your sky now

INTELSAT 605

Track INTELSAT 605 now!
INTELSAT 605 is classified as:


NORAD ID: 21653
Int'l Code: 1991-055A
Perigee: 36,044.3 km
Apogee: 36,079.3 km
Inclination: 10.2 °
Period: 1,449.8 minutes
Semi major axis: 42432 km
RCS: 0.754 m2 (medium)
Launch date: August 14, 1991
Source: International Telecommunications Satellite Organization (ITSO)
Launch site: FRENCH GUIANA (FRGUI)

Inclined orbit; 64 C-band, 24 Ku-band; Broadcasting, business services, direct-to-home TV broadcasting, telecommunications, VSAT networks; Atlantic Ocean region.
Your satellite tracking list
Your tracking list is empty





NASA's NSSDC Master Catalog

Two Line Element Set (TLE):
1 21653U 91055A   17235.50016300 -.00000126  00000-0  00000+0 0  9999
2 21653  10.2033  40.3631 0004121 196.0356 192.1081  0.99323037 94992
Source of the keplerian elements: AFSPC